Time,TemperatureF,DewpointF,PressureIn,WindDirection,WindDirectionDegrees,WindSpeedMPH,WindSpeedGustMPH,Humidity,HourlyPrecipIn,Conditions,Clouds,dailyrainin,SoftwareType,DateUTC
2013-07-31 00:02:00,86.7,53.4,27.26,ESE,103,3.6,4.9,32,0.00,,---,0.00,VWS V13.01,2013-07-31 07:02:00,
2013-07-31 00:07:00,86.7,53.4,27.26,ESE,106,4.9,4.9,32,0.00,,---,0.00,VWS V13.01,2013-07-31 07:07:00,
2013-07-31 00:13:00,86.7,54.2,27.26,SE,126,3.6,5.4,33,0.00,,---,0.00,VWS V13.01,2013-07-31 07:13:00,
2013-07-31 00:18:00,86.7,54.2,27.26,SE,127,3.1,5.4,33,0.00,,---,0.00,VWS V13.01,2013-07-31 07:18:00,
2013-07-31 00:23:00,86.5,54.0,27.26,ESE,119,2.7,2.7,33,0.00,,---,0.00,VWS V13.01,2013-07-31 07:23:00,
2013-07-31 00:28:00,86.5,54.0,27.26,ESE,113,0.0,0.0,33,0.00,,---,0.00,VWS V13.01,2013-07-31 07:28:00,
2013-07-31 00:33:00,86.4,53.9,27.26,ESE,110,0.0,0.0,33,0.00,,---,0.00,VWS V13.01,2013-07-31 07:33:00,
2013-07-31 00:38:00,86.2,53.7,27.26,ESE,111,0.0,4.5,33,0.00,,---,0.00,VWS V13.01,2013-07-31 07:38:00,
2013-07-31 00:43:00,86.2,53.7,27.26,ESE,111,0.0,0.0,33,0.00,,---,0.00,VWS V13.01,2013-07-31 07:43:00,
2013-07-31 00:48:00,86.0,53.6,27.26,ESE,112,0.0,0.0,33,0.00,,---,0.00,VWS V13.01,2013-07-31 07:48:00,
2013-07-31 00:54:00,85.8,54.2,27.26,ESE,113,0.0,0.0,34,0.00,,---,0.00,VWS V13.01,2013-07-31 07:54:00,
2013-07-31 00:59:00,85.6,54.1,27.26,ESE,113,0.0,0.0,34,0.00,,---,0.00,VWS V13.01,2013-07-31 07:59:00,
2013-07-31 01:04:00,85.5,53.9,27.26,ESE,113,0.0,0.0,34,0.00,,---,0.00,VWS V13.01,2013-07-31 08:04:00,
2013-07-31 01:10:00,85.1,53.6,27.26,ESE,113,0.0,0.0,34,0.00,,---,0.00,VWS V13.01,2013-07-31 08:10:00,
2013-07-31 01:15:00,84.9,53.5,27.26,ESE,113,0.0,0.0,34,0.00,,---,0.00,VWS V13.01,2013-07-31 08:15:00,
2013-07-31 01:20:00,84.9,53.5,27.23,ESE,113,0.0,0.0,34,0.00,,---,0.00,VWS V13.01,2013-07-31 08:20:00,
2013-07-31 01:25:00,84.7,53.3,27.23,ESE,113,0.0,0.0,34,0.00,,---,0.00,VWS V13.01,2013-07-31 08:25:00,
2013-07-31 01:30:00,84.6,53.9,27.23,ESE,113,0.0,0.0,35,0.00,,---,0.00,VWS V13.01,2013-07-31 08:30:00,
2013-07-31 01:36:00,84.4,53.8,27.26,ESE,113,0.0,0.0,35,0.00,,---,0.00,VWS V13.01,2013-07-31 08:36:00,
2013-07-31 01:41:00,84.0,53.5,27.26,ESE,113,0.0,0.0,35,0.00,,---,0.00,VWS V13.01,2013-07-31 08:41:00,
2013-07-31 01:46:00,83.8,53.3,27.26,ESE,113,0.0,0.0,35,0.00,,---,0.00,VWS V13.01,2013-07-31 08:46:00,
2013-07-31 01:51:00,83.5,53.8,27.23,ESE,113,0.0,0.0,36,0.00,,---,0.00,VWS V13.01,2013-07-31 08:51:00,
2013-07-31 01:56:00,83.3,53.6,27.23,ESE,113,0.0,0.0,36,0.00,,---,0.00,VWS V13.01,2013-07-31 08:56:00,
2013-07-31 02:01:00,83.1,53.4,27.23,ESE,112,0.0,0.0,36,0.00,,---,0.00,VWS V13.01,2013-07-31 09:01:00,
2013-07-31 02:07:00,82.9,53.3,27.26,ESE,113,0.0,0.0,36,0.00,,---,0.00,VWS V13.01,2013-07-31 09:07:00,
2013-07-31 02:12:00,82.8,53.1,27.26,ESE,118,0.0,0.0,36,0.00,,---,0.00,VWS V13.01,2013-07-31 09:12:00,
2013-07-31 02:17:00,82.8,53.9,27.26,SE,129,0.0,5.4,37,0.00,,---,0.00,VWS V13.01,2013-07-31 09:17:00,
2013-07-31 02:22:00,82.6,53.7,27.26,SE,125,2.7,5.8,37,0.00,,---,0.00,VWS V13.01,2013-07-31 09:22:00,
2013-07-31 02:28:00,82.6,53.7,27.26,SE,126,0.0,5.8,37,0.00,,---,0.00,VWS V13.01,2013-07-31 09:28:00,
2013-07-31 02:33:00,82.6,53.7,27.26,ESE,111,3.6,4.0,37,0.00,,---,0.00,VWS V13.01,2013-07-31 09:33:00,
2013-07-31 02:38:00,82.6,53.7,27.26,ESE,122,2.2,4.0,37,0.00,,---,0.00,VWS V13.01,2013-07-31 09:38:00,
2013-07-31 02:43:00,82.4,53.5,27.26,SE,136,4.0,4.0,37,0.00,,---,0.00,VWS V13.01,2013-07-31 09:43:00,
2013-07-31 02:48:00,82.4,54.3,27.26,East,95,4.0,5.8,38,0.00,,---,0.00,VWS V13.01,2013-07-31 09:48:00,
2013-07-31 02:53:00,82.6,54.4,27.26,ESE,119,5.4,6.3,38,0.00,,---,0.00,VWS V13.01,2013-07-31 09:53:00,
2013-07-31 02:59:00,82.6,54.4,27.26,ESE,114,5.8,6.3,38,0.00,,---,0.00,VWS V13.01,2013-07-31 09:59:00,
2013-07-31 03:04:00,82.6,54.4,27.26,ESE,115,4.0,5.4,38,0.00,,---,0.00,VWS V13.01,2013-07-31 10:04:00,
2013-07-31 03:09:00,82.8,54.6,27.26,SE,125,3.1,3.6,38,0.00,,---,0.00,VWS V13.01,2013-07-31 10:09:00,
2013-07-31 03:15:00,82.8,54.6,27.26,SE,128,3.1,3.6,38,0.00,,---,0.00,VWS V13.01,2013-07-31 10:15:00,
2013-07-31 03:20:00,82.8,54.6,27.26,ESE,121,0.0,4.9,38,0.00,,---,0.00,VWS V13.01,2013-07-31 10:20:00,
2013-07-31 03:25:00,82.6,54.4,27.26,ESE,122,0.0,0.0,38,0.00,,---,0.00,VWS V13.01,2013-07-31 10:25:00,
2013-07-31 03:30:00,82.6,55.1,27.26,ESE,122,0.0,0.0,39,0.00,,---,0.00,VWS V13.01,2013-07-31 10:30:00,
2013-07-31 03:35:00,82.4,55.0,27.26,ESE,122,0.0,0.0,39,0.00,,---,0.00,VWS V13.01,2013-07-31 10:35:00,
2013-07-31 03:40:00,82.4,55.0,27.26,ESE,122,0.0,0.0,39,0.00,,---,0.00,VWS V13.01,2013-07-31 10:40:00,
2013-07-31 03:45:00,82.2,54.8,27.26,ESE,115,0.0,0.0,39,0.00,,---,0.00,VWS V13.01,2013-07-31 10:45:00,
2013-07-31 03:50:00,82.0,54.7,27.26,ESE,115,0.0,0.0,39,0.00,,---,0.00,VWS V13.01,2013-07-31 10:50:00,
2013-07-31 03:55:00,81.9,54.5,27.26,ESE,115,0.0,0.0,39,0.00,,---,0.00,VWS V13.01,2013-07-31 10:55:00,
2013-07-31 04:01:00,81.9,54.5,27.26,ESE,115,0.0,0.0,39,0.00,,---,0.00,VWS V13.01,2013-07-31 11:01:00,
2013-07-31 04:06:00,81.9,54.5,27.26,ESE,115,0.0,0.0,39,0.00,,---,0.00,VWS V13.01,2013-07-31 11:06:00,
2013-07-31 04:11:00,81.9,54.5,27.26,ESE,115,0.0,0.0,39,0.00,,---,0.00,VWS V13.01,2013-07-31 11:11:00,
2013-07-31 04:16:00,81.9,54.5,27.26,ESE,115,0.0,0.0,39,0.00,,---,0.00,VWS V13.01,2013-07-31 11:16:00,
2013-07-31 04:21:00,81.7,55.0,27.26,ESE,115,0.0,0.0,40,0.00,,---,0.00,VWS V13.01,2013-07-31 11:21:00,
2013-07-31 04:26:00,81.7,54.3,27.26,ESE,115,0.0,0.0,39,0.00,,---,0.00,VWS V13.01,2013-07-31 11:26:00,
2013-07-31 04:31:00,81.7,54.3,27.26,ESE,115,0.0,0.0,39,0.00,,---,0.00,VWS V13.01,2013-07-31 11:31:00,
2013-07-31 04:36:00,81.7,54.3,27.26,ESE,115,0.0,0.0,39,0.00,,---,0.00,VWS V13.01,2013-07-31 11:36:00,
2013-07-31 04:42:00,81.7,54.3,27.26,ESE,115,0.0,0.0,39,0.00,,---,0.00,VWS V13.01,2013-07-31 11:42:00,
2013-07-31 04:47:00,81.7,54.3,27.26,ESE,115,0.0,0.0,39,0.00,,---,0.00,VWS V13.01,2013-07-31 11:47:00,
2013-07-31 04:52:00,81.7,54.3,27.26,ESE,115,0.0,0.0,39,0.00,,---,0.00,VWS V13.01,2013-07-31 11:52:00,
2013-07-31 04:58:00,81.7,55.0,27.26,ESE,115,0.0,0.0,40,0.00,,---,0.00,VWS V13.01,2013-07-31 11:58:00,
2013-07-31 05:03:00,81.5,54.9,27.26,ESE,115,0.0,0.0,40,0.00,,---,0.00,VWS V13.01,2013-07-31 12:03:00,
2013-07-31 05:09:00,81.5,54.9,27.29,ESE,115,0.0,0.0,40,0.00,,---,0.00,VWS V13.01,2013-07-31 12:09:00,
2013-07-31 05:14:00,81.3,54.7,27.29,ESE,115,0.0,0.0,40,0.00,,---,0.00,VWS V13.01,2013-07-31 12:14:00,
2013-07-31 05:20:00,81.3,54.7,27.29,ESE,113,0.0,0.0,40,0.00,,---,0.00,VWS V13.01,2013-07-31 12:20:00,
2013-07-31 05:25:00,81.3,54.7,27.29,East,85,0.0,4.0,40,0.00,,---,0.00,VWS V13.01,2013-07-31 12:25:00,
2013-07-31 05:30:00,81.5,54.9,27.29,East,86,0.0,0.0,40,0.00,,---,0.00,VWS V13.01,2013-07-31 12:30:00,
2013-07-31 05:35:00,81.5,54.9,27.29,East,86,0.0,2.7,40,0.00,,---,0.00,VWS V13.01,2013-07-31 12:35:00,
2013-07-31 05:41:00,81.5,54.9,27.29,East,86,0.0,0.0,40,0.00,,---,0.00,VWS V13.01,2013-07-31 12:41:00,
2013-07-31 05:46:00,81.5,54.9,27.29,East,86,0.0,0.0,40,0.00,,---,0.00,VWS V13.01,2013-07-31 12:46:00,
2013-07-31 05:52:00,81.5,54.9,27.29,East,86,0.0,0.0,40,0.00,,---,0.00,VWS V13.01,2013-07-31 12:52:00,
2013-07-31 05:57:00,81.5,54.9,27.29,East,85,0.0,0.0,40,0.00,,---,0.00,VWS V13.01,2013-07-31 12:57:00,
2013-07-31 06:02:00,81.5,54.9,27.29,East,86,0.0,0.0,40,0.00,,---,0.00,VWS V13.01,2013-07-31 13:02:00,
2013-07-31 06:08:00,81.5,54.9,27.29,East,86,0.0,0.0,40,0.00,,---,0.00,VWS V13.01,2013-07-31 13:08:00,
2013-07-31 06:13:00,81.3,54.7,27.29,East,86,0.0,0.0,40,0.00,,---,0.00,VWS V13.01,2013-07-31 13:13:00,
2013-07-31 06:18:00,81.1,55.2,27.29,East,86,0.0,0.0,41,0.00,,---,0.00,VWS V13.01,2013-07-31 13:18:00,
2013-07-31 06:23:00,81.1,55.2,27.29,East,86,0.0,0.0,41,0.00,,---,0.00,VWS V13.01,2013-07-31 13:23:00,
2013-07-31 06:29:00,81.1,55.2,27.29,East,86,0.0,0.0,41,0.00,,---,0.00,VWS V13.01,2013-07-31 13:29:00,
2013-07-31 06:34:00,81.1,55.2,27.29,East,86,0.0,0.0,41,0.00,,---,0.00,VWS V13.01,2013-07-31 13:34:00,
2013-07-31 06:39:00,81.3,55.4,27.29,East,86,0.0,0.0,41,0.00,,---,0.00,VWS V13.01,2013-07-31 13:39:00,
2013-07-31 06:44:00,81.3,55.4,27.29,East,86,0.0,0.0,41,0.00,,---,0.00,VWS V13.01,2013-07-31 13:44:00,
2013-07-31 06:50:00,81.3,55.4,27.29,East,86,0.0,0.0,41,0.00,,---,0.00,VWS V13.01,2013-07-31 13:50:00,
2013-07-31 06:55:00,81.3,55.4,27.29,East,86,0.0,0.0,41,0.00,,---,0.00,VWS V13.01,2013-07-31 13:55:00,
2013-07-31 07:00:00,81.5,55.5,27.29,East,86,0.0,0.0,41,0.00,,---,0.00,VWS V13.01,2013-07-31 14:00:00,
2013-07-31 07:05:00,81.5,56.2,27.29,East,86,0.0,0.0,42,0.00,,---,0.00,VWS V13.01,2013-07-31 14:05:00,
2013-07-31 07:10:00,81.7,55.7,27.29,East,86,0.0,0.0,41,0.00,,---,0.00,VWS V13.01,2013-07-31 14:10:00,
2013-07-31 07:16:00,81.9,55.9,27.29,East,86,0.0,0.0,41,0.00,,---,0.00,VWS V13.01,2013-07-31 14:16:00,
2013-07-31 07:21:00,82.0,56.7,27.29,East,86,0.0,0.0,42,0.00,,---,0.00,VWS V13.01,2013-07-31 14:21:00,
2013-07-31 07:26:00,82.0,56.7,27.29,East,86,0.0,0.0,42,0.00,,---,0.00,VWS V13.01,2013-07-31 14:26:00,
2013-07-31 07:32:00,82.2,56.9,27.29,East,86,0.0,0.0,42,0.00,,---,0.00,VWS V13.01,2013-07-31 14:32:00,
2013-07-31 07:37:00,82.6,57.2,27.29,East,86,0.0,0.0,42,0.00,,---,0.00,VWS V13.01,2013-07-31 14:37:00,
2013-07-31 07:42:00,82.8,57.3,27.29,East,86,0.0,0.0,42,0.00,,---,0.00,VWS V13.01,2013-07-31 14:42:00,
2013-07-31 07:47:00,83.1,57.7,27.29,East,86,0.0,0.0,42,0.00,,---,0.00,VWS V13.01,2013-07-31 14:47:00,
2013-07-31 07:53:00,83.5,58.0,27.29,East,86,0.0,0.0,42,0.00,,---,0.00,VWS V13.01,2013-07-31 14:53:00,
2013-07-31 07:58:00,84.6,58.3,27.29,East,86,0.0,0.0,41,0.00,,---,0.00,VWS V13.01,2013-07-31 14:58:00,
2013-07-31 08:03:00,85.6,58.6,27.29,East,86,0.0,0.0,40,0.00,,---,0.00,VWS V13.01,2013-07-31 15:03:00,
2013-07-31 08:08:00,86.4,58.5,27.29,East,86,0.0,0.0,39,0.00,,---,0.00,VWS V13.01,2013-07-31 15:08:00,
2013-07-31 08:14:00,87.1,58.4,27.29,East,86,0.0,0.0,38,0.00,,---,0.00,VWS V13.01,2013-07-31 15:14:00,
2013-07-31 08:19:00,87.3,57.8,27.29,East,86,0.0,0.0,37,0.00,,---,0.00,VWS V13.01,2013-07-31 15:19:00,
2013-07-31 08:24:00,88.0,58.5,27.29,ENE,75,0.0,0.0,37,0.00,,---,0.00,VWS V13.01,2013-07-31 15:24:00,
2013-07-31 08:29:00,88.7,58.3,27.29,ENE,72,0.0,0.0,36,0.00,,---,0.00,VWS V13.01,2013-07-31 15:29:00,
2013-07-31 08:34:00,89.2,58.8,27.29,ENE,69,0.0,0.0,36,0.00,,---,0.00,VWS V13.01,2013-07-31 15:34:00,
2013-07-31 08:40:00,89.8,58.5,27.29,NNE,14,0.0,0.0,35,0.00,,---,0.00,VWS V13.01,2013-07-31 15:40:00,
2013-07-31 08:45:00,90.0,58.7,27.29,NNE,14,0.0,0.0,35,0.00,,---,0.00,VWS V13.01,2013-07-31 15:45:00,
2013-07-31 08:50:00,90.1,58.0,27.29,North,11,0.0,0.0,34,0.00,,---,0.00,VWS V13.01,2013-07-31 15:50:00,
2013-07-31 08:56:00,91.0,58.8,27.29,North,11,0.0,0.0,34,0.00,,---,0.00,VWS V13.01,2013-07-31 15:56:00,
2013-07-31 09:01:00,91.8,59.4,27.29,East,99,2.2,3.6,34,0.00,,---,0.00,VWS V13.01,2013-07-31 16:01:00,
2013-07-31 09:06:00,92.7,59.4,27.29,East,99,0.0,0.0,33,0.00,,---,0.00,VWS V13.01,2013-07-31 16:06:00,
2013-07-31 09:11:00,92.8,59.5,27.29,East,99,0.0,0.0,33,0.00,,---,0.00,VWS V13.01,2013-07-31 16:11:00,
2013-07-31 09:17:00,93.4,59.1,27.29,East,88,0.0,0.0,32,0.00,,---,0.00,VWS V13.01,2013-07-31 16:17:00,
2013-07-31 09:22:00,94.1,59.8,27.29,East,82,0.0,0.0,32,0.00,,---,0.00,VWS V13.01,2013-07-31 16:22:00,
2013-07-31 09:27:00,94.8,60.4,27.29,ESE,104,0.0,5.8,32,0.00,,---,0.00,VWS V13.01,2013-07-31 16:27:00,
2013-07-31 09:32:00,94.8,59.5,27.29,ESE,104,0.0,0.0,31,0.00,,---,0.00,VWS V13.01,2013-07-31 16:32:00,
2013-07-31 09:38:00,94.5,58.3,27.29,ESE,104,0.0,0.0,30,0.00,,---,0.00,VWS V13.01,2013-07-31 16:38:00,
2013-07-31 09:43:00,94.3,58.1,27.29,West,279,0.0,0.0,30,0.00,,---,0.00,VWS V13.01,2013-07-31 16:43:00,
2013-07-31 09:48:00,94.8,58.6,27.29,West,281,0.0,2.7,30,0.00,,---,0.00,VWS V13.01,2013-07-31 16:48:00,
2013-07-31 09:53:00,95.4,59.0,27.29,SSW,210,0.0,0.0,30,0.00,,---,0.00,VWS V13.01,2013-07-31 16:53:00,
2013-07-31 09:59:00,95.9,59.5,27.29,West,276,4.0,4.0,30,0.00,,---,0.00,VWS V13.01,2013-07-31 16:59:00,
2013-07-31 10:04:00,96.4,60.0,27.29,South,191,4.0,4.9,30,0.00,,---,0.00,VWS V13.01,2013-07-31 17:04:00,
2013-07-31 10:09:00,96.3,58.9,27.29,WNW,303,0.0,3.6,29,0.00,,---,0.00,VWS V13.01,2013-07-31 17:09:00,
2013-07-31 10:14:00,96.4,59.0,27.29,SW,234,5.8,8.1,29,0.00,,---,0.00,VWS V13.01,2013-07-31 17:14:00,
2013-07-31 10:19:00,97.0,58.5,27.29,WNW,297,4.0,4.9,28,0.00,,---,0.00,VWS V13.01,2013-07-31 17:19:00,
2013-07-31 10:24:00,96.4,58.0,27.29,NW,304,2.7,4.9,28,0.00,,---,0.00,VWS V13.01,2013-07-31 17:24:00,
2013-07-31 10:30:00,96.8,58.3,27.29,SSW,198,3.1,4.0,28,0.00,,---,0.00,VWS V13.01,2013-07-31 17:30:00,
2013-07-31 10:35:00,97.5,59.0,27.26,WSW,238,5.4,5.4,28,0.00,,---,0.00,VWS V13.01,2013-07-31 17:35:00,
2013-07-31 10:41:00,97.5,58.0,27.26,WNW,293,7.6,7.6,27,0.00,,---,0.00,VWS V13.01,2013-07-31 17:41:00,
2013-07-31 10:46:00,97.7,58.1,27.26,WSW,255,5.4,5.4,27,0.00,,---,0.00,VWS V13.01,2013-07-31 17:46:00,
2013-07-31 10:51:00,98.2,58.6,27.26,SW,221,4.0,8.3,27,0.00,,---,0.00,VWS V13.01,2013-07-31 17:51:00,
2013-07-31 10:56:00,98.8,59.0,27.26,SW,228,5.4,5.4,27,0.00,,---,0.00,VWS V13.01,2013-07-31 17:56:00,
2013-07-31 11:02:00,99.1,58.3,27.26,SW,223,0.0,7.6,26,0.00,,---,0.00,VWS V13.01,2013-07-31 18:02:00,
2013-07-31 11:07:00,99.1,58.3,27.26,WNW,301,5.4,5.8,26,0.00,,---,0.00,VWS V13.01,2013-07-31 18:07:00,
2013-07-31 11:12:00,99.0,58.1,27.26,WNW,296,4.0,5.8,26,0.00,,---,0.00,VWS V13.01,2013-07-31 18:12:00,
2013-07-31 11:17:00,99.0,58.1,27.26,SSW,196,2.2,6.3,26,0.00,,---,0.00,VWS V13.01,2013-07-31 18:17:00,
2013-07-31 11:23:00,99.5,58.6,27.26,NW,324,4.0,6.3,26,0.00,,---,0.00,VWS V13.01,2013-07-31 18:23:00,
2013-07-31 11:28:00,99.1,58.3,27.26,West,278,2.7,2.7,26,0.00,,---,0.00,VWS V13.01,2013-07-31 18:28:00,
2013-07-31 11:33:00,99.3,58.4,27.26,North,354,2.7,7.2,26,0.00,,---,0.00,VWS V13.01,2013-07-31 18:33:00,
2013-07-31 11:39:00,99.7,58.7,27.26,NW,315,5.4,7.6,26,0.00,,---,0.00,VWS V13.01,2013-07-31 18:39:00,
2013-07-31 11:44:00,99.7,58.7,27.26,WSW,255,8.3,8.3,26,0.00,,---,0.00,VWS V13.01,2013-07-31 18:44:00,
2013-07-31 11:49:00,100.2,59.2,27.26,WNW,293,4.0,4.0,26,0.00,,---,0.00,VWS V13.01,2013-07-31 18:49:00,
2013-07-31 11:55:00,100.6,58.4,27.26,WSW,254,5.8,6.3,25,0.00,,---,0.00,VWS V13.01,2013-07-31 18:55:00,
2013-07-31 12:00:00,100.4,58.2,27.26,SW,233,5.4,7.6,25,0.00,,---,0.00,VWS V13.01,2013-07-31 19:00:00,
2013-07-31 12:05:00,100.9,58.7,27.26,SSW,208,7.2,7.6,25,0.00,,---,0.00,VWS V13.01,2013-07-31 19:05:00,
2013-07-31 12:10:00,101.5,59.1,27.26,WSW,246,5.4,5.8,25,0.00,,---,0.00,VWS V13.01,2013-07-31 19:10:00,
2013-07-31 12:15:00,100.9,58.7,27.26,West,280,2.2,6.3,25,0.00,,---,0.00,VWS V13.01,2013-07-31 19:15:00,
2013-07-31 12:20:00,100.9,58.7,27.23,WSW,253,4.0,5.8,25,0.00,,---,0.00,VWS V13.01,2013-07-31 19:20:00,
2013-07-31 12:25:00,101.3,59.0,27.23,South,190,6.3,6.3,25,0.00,,---,0.00,VWS V13.01,2013-07-31 19:25:00,
2013-07-31 12:30:00,101.8,58.3,27.23,ESE,106,4.0,4.0,24,0.00,,---,0.00,VWS V13.01,2013-07-31 19:30:00,
2013-07-31 12:35:00,102.7,57.9,27.23,West,274,7.6,11.0,23,0.00,,---,0.00,VWS V13.01,2013-07-31 19:35:00,
2013-07-31 12:40:00,102.9,56.8,27.23,WSW,238,5.8,8.7,22,0.00,,---,0.00,VWS V13.01,2013-07-31 19:40:00,
2013-07-31 12:45:00,103.8,57.5,27.23,South,182,5.8,9.2,22,0.00,,---,0.00,VWS V13.01,2013-07-31 19:45:00,
2013-07-31 12:51:00,104.4,56.7,27.23,SSE,156,2.7,8.1,21,0.00,,---,0.00,VWS V13.01,2013-07-31 19:51:00,
2013-07-31 12:56:00,104.7,55.6,27.23,SSW,200,5.4,8.3,20,0.00,,---,0.00,VWS V13.01,2013-07-31 19:56:00,
2013-07-31 13:01:00,105.1,54.5,27.23,SSW,197,3.6,8.3,19,0.00,,---,0.00,VWS V13.01,2013-07-31 20:01:00,
2013-07-31 13:06:00,105.1,54.5,27.23,WSW,256,5.4,12.3,19,0.00,,---,0.00,VWS V13.01,2013-07-31 20:06:00,
2013-07-31 13:12:00,105.6,56.4,27.23,South,179,4.9,5.8,20,0.00,,---,0.00,VWS V13.01,2013-07-31 20:12:00,
2013-07-31 13:17:00,106.3,55.5,27.23,South,173,6.7,11.0,19,0.00,,---,0.00,VWS V13.01,2013-07-31 20:17:00,
2013-07-31 13:23:00,105.4,53.3,27.23,SSW,193,8.3,8.3,18,0.00,,---,0.00,VWS V13.01,2013-07-31 20:23:00,
2013-07-31 13:28:00,104.4,53.9,27.23,South,182,8.3,10.5,19,0.00,,---,0.00,VWS V13.01,2013-07-31 20:28:00,
2013-07-31 13:33:00,103.5,54.6,27.23,South,184,4.0,7.6,20,0.00,,---,0.00,VWS V13.01,2013-07-31 20:33:00,
2013-07-31 13:38:00,102.9,54.2,27.23,SSW,199,6.3,11.0,20,0.00,,---,0.00,VWS V13.01,2013-07-31 20:38:00,
2013-07-31 13:43:00,101.7,54.5,27.23,SSW,205,5.8,10.1,21,0.00,,---,0.00,VWS V13.01,2013-07-31 20:43:00,
2013-07-31 13:48:00,101.5,54.3,27.23,SSW,203,7.6,8.3,21,0.00,,---,0.00,VWS V13.01,2013-07-31 20:48:00,
2013-07-31 13:53:00,100.9,55.2,27.23,SSW,202,6.3,6.3,22,0.00,,---,0.00,VWS V13.01,2013-07-31 20:53:00,
2013-07-31 13:59:00,100.9,55.2,27.23,SSW,194,5.4,5.4,22,0.00,,---,0.00,VWS V13.01,2013-07-31 20:59:00,
2013-07-31 14:04:00,100.4,54.7,27.23,South,184,4.0,6.3,22,0.00,,---,0.00,VWS V13.01,2013-07-31 21:04:00,
2013-07-31 14:09:00,100.2,55.8,27.23,South,172,6.3,6.3,23,0.00,,---,0.00,VWS V13.01,2013-07-31 21:09:00,
2013-07-31 14:14:00,99.9,55.5,27.23,West,268,0.0,0.0,23,0.00,,---,0.00,VWS V13.01,2013-07-31 21:14:00,
2013-07-31 14:19:00,99.5,55.2,27.23,WSW,240,4.0,5.8,23,0.00,,---,0.00,VWS V13.01,2013-07-31 21:19:00,
2013-07-31 14:25:00,99.3,55.0,27.23,WNW,288,0.0,2.2,23,0.00,,---,0.00,VWS V13.01,2013-07-31 21:25:00,
2013-07-31 14:30:00,99.0,54.7,27.23,WSW,246,0.0,2.2,23,0.00,,---,0.00,VWS V13.01,2013-07-31 21:30:00,
2013-07-31 14:36:00,98.6,54.4,27.23,WSW,249,0.0,4.0,23,0.00,,---,0.00,VWS V13.01,2013-07-31 21:36:00,
2013-07-31 14:41:00,98.2,54.1,27.23,South,190,3.1,3.6,23,0.00,,---,0.00,VWS V13.01,2013-07-31 21:41:00,
2013-07-31 14:46:00,98.1,54.0,27.23,SE,131,8.3,8.3,23,0.00,,---,0.00,VWS V13.01,2013-07-31 21:46:00,
2013-07-31 14:52:00,97.5,56.9,27.23,NE,56,3.6,8.1,26,0.00,,---,0.00,VWS V13.01,2013-07-31 21:52:00,
2013-07-31 14:57:00,97.2,56.6,27.23,NE,52,4.9,6.3,26,0.00,,---,0.00,VWS V13.01,2013-07-31 21:57:00,
2013-07-31 15:02:00,96.3,55.8,27.23,NNE,14,8.7,8.7,26,0.00,,---,0.00,VWS V13.01,2013-07-31 22:02:00,
2013-07-31 15:08:00,95.2,56.0,27.23,ENE,62,11.0,11.0,27,0.00,,---,0.00,VWS V13.01,2013-07-31 22:08:00,
2013-07-31 15:13:00,94.3,56.2,27.23,ENE,70,4.9,11.0,28,0.00,,---,0.00,VWS V13.01,2013-07-31 22:13:00,
2013-07-31 15:18:00,93.9,55.9,27.23,NE,49,2.7,5.8,28,0.00,,---,0.00,VWS V13.01,2013-07-31 22:18:00,
2013-07-31 15:23:00,93.7,55.7,27.20,NE,37,8.1,8.1,28,0.00,,---,0.00,VWS V13.01,2013-07-31 22:23:00,
2013-07-31 15:29:00,93.6,55.6,27.20,NNE,29,6.3,8.7,28,0.00,,---,0.00,VWS V13.01,2013-07-31 22:29:00,
2013-07-31 15:34:00,93.4,55.4,27.20,NE,41,5.8,6.3,28,0.00,,---,0.00,VWS V13.01,2013-07-31 22:34:00,
2013-07-31 15:40:00,93.7,55.7,27.20,NNE,14,6.7,8.1,28,0.00,,---,0.00,VWS V13.01,2013-07-31 22:40:00,
2013-07-31 15:45:00,94.1,56.0,27.20,NE,39,5.4,6.3,28,0.00,,---,0.00,VWS V13.01,2013-07-31 22:45:00,
2013-07-31 15:50:00,94.5,56.4,27.20,ENE,58,6.3,6.3,28,0.00,,---,0.00,VWS V13.01,2013-07-31 22:50:00,
2013-07-31 15:55:00,94.6,56.5,27.20,East,79,5.8,6.3,28,0.00,,---,0.00,VWS V13.01,2013-07-31 22:55:00,
2013-07-31 16:00:00,95.0,55.8,27.20,NNE,27,0.0,6.3,27,0.00,,---,0.00,VWS V13.01,2013-07-31 23:00:00,
2013-07-31 16:05:00,95.2,56.0,27.20,NNE,16,4.0,4.9,27,0.00,,---,0.00,VWS V13.01,2013-07-31 23:05:00,
2013-07-31 16:11:00,95.4,57.1,27.20,NNW,331,2.7,6.3,28,0.00,,---,0.00,VWS V13.01,2013-07-31 23:11:00,
2013-07-31 16:16:00,94.8,57.6,27.20,North,358,3.6,7.6,29,0.00,,---,0.00,VWS V13.01,2013-07-31 23:16:00,
2013-07-31 16:21:00,94.3,57.2,27.20,ENE,57,3.6,7.6,29,0.00,,---,0.00,VWS V13.01,2013-07-31 23:21:00,
2013-07-31 16:26:00,94.5,57.3,27.20,NE,34,7.6,7.6,29,0.00,,---,0.00,VWS V13.01,2013-07-31 23:26:00,
2013-07-31 16:31:00,94.5,57.3,27.20,NE,35,3.6,5.8,29,0.00,,---,0.00,VWS V13.01,2013-07-31 23:31:00,
2013-07-31 16:36:00,94.5,56.4,27.20,NNE,26,4.0,6.3,28,0.00,,---,0.00,VWS V13.01,2013-07-31 23:36:00,
2013-07-31 16:42:00,94.5,56.4,27.20,NNE,14,4.0,6.3,28,0.00,,---,0.00,VWS V13.01,2013-07-31 23:42:00,
2013-07-31 16:47:00,94.5,56.4,27.20,North,7,0.0,4.0,28,0.00,,---,0.00,VWS V13.01,2013-07-31 23:47:00,
2013-07-31 16:52:00,95.2,57.0,27.20,NE,49,4.0,5.4,28,0.00,,---,0.00,VWS V13.01,2013-07-31 23:52:00,
2013-07-31 16:57:00,95.5,57.3,27.20,NE,44,5.4,6.3,28,0.00,,---,0.00,VWS V13.01,2013-07-31 23:57:00,
2013-07-31 17:03:00,96.1,56.7,27.20,ENE,68,4.0,4.0,27,0.00,,---,0.00,VWS V13.01,2013-08-01 00:03:00,
2013-07-31 17:08:00,96.1,56.7,27.20,North,2,0.0,6.3,27,0.00,,---,0.00,VWS V13.01,2013-08-01 00:08:00,
2013-07-31 17:13:00,96.1,56.7,27.20,NE,50,0.0,4.9,27,0.00,,---,0.00,VWS V13.01,2013-08-01 00:13:00,
2013-07-31 17:18:00,95.9,56.6,27.20,NE,36,2.7,5.4,27,0.00,,---,0.00,VWS V13.01,2013-08-01 00:18:00,
2013-07-31 17:24:00,95.9,56.6,27.20,NNE,14,4.0,4.0,27,0.00,,---,0.00,VWS V13.01,2013-08-01 00:24:00,
2013-07-31 17:29:00,95.7,56.4,27.20,ENE,61,3.6,5.8,27,0.00,,---,0.00,VWS V13.01,2013-08-01 00:29:00,
2013-07-31 17:34:00,95.5,56.3,27.20,NNE,33,0.0,4.5,27,0.00,,---,0.00,VWS V13.01,2013-08-01 00:34:00,
2013-07-31 17:39:00,95.4,56.1,27.17,NE,56,3.6,5.8,27,0.00,,---,0.00,VWS V13.01,2013-08-01 00:39:00,
2013-07-31 17:44:00,95.4,56.1,27.17,NE,36,3.6,5.8,27,0.00,,---,0.00,VWS V13.01,2013-08-01 00:44:00,
2013-07-31 17:49:00,95.2,56.0,27.17,NNE,27,2.7,5.4,27,0.00,,---,0.00,VWS V13.01,2013-08-01 00:49:00,
2013-07-31 17:55:00,95.0,55.8,27.17,North,7,5.4,5.4,27,0.00,,---,0.00,VWS V13.01,2013-08-01 00:55:00,
2013-07-31 18:00:00,95.0,55.8,27.17,NNE,26,2.7,4.0,27,0.00,,---,0.00,VWS V13.01,2013-08-01 01:00:00,
2013-07-31 18:06:00,94.8,55.7,27.17,North,7,3.1,5.4,27,0.00,,---,0.00,VWS V13.01,2013-08-01 01:06:00,
2013-07-31 18:11:00,94.6,56.5,27.17,NE,51,3.6,5.8,28,0.00,,---,0.00,VWS V13.01,2013-08-01 01:11:00,
2013-07-31 18:16:00,94.5,56.4,27.17,NE,40,6.3,6.3,28,0.00,,---,0.00,VWS V13.01,2013-08-01 01:16:00,
2013-07-31 18:21:00,94.1,56.0,27.17,NNE,14,3.6,8.3,28,0.00,,---,0.00,VWS V13.01,2013-08-01 01:21:00,
2013-07-31 18:27:00,93.7,55.7,27.17,NE,48,7.2,7.2,28,0.00,,---,0.00,VWS V13.01,2013-08-01 01:27:00,
2013-07-31 18:32:00,93.4,56.4,27.17,NE,52,5.8,7.6,29,0.00,,---,0.00,VWS V13.01,2013-08-01 01:32:00,
2013-07-31 18:37:00,92.8,55.9,27.17,NE,51,8.3,8.3,29,0.00,,---,0.00,VWS V13.01,2013-08-01 01:37:00,
2013-07-31 18:42:00,92.5,55.6,27.17,NE,44,10.1,10.1,29,0.00,,---,0.00,VWS V13.01,2013-08-01 01:42:00,
2013-07-31 18:48:00,92.1,56.3,27.17,NE,42,4.0,7.6,30,0.00,,---,0.00,VWS V13.01,2013-08-01 01:48:00,
2013-07-31 18:53:00,91.8,56.0,27.17,NE,39,4.5,7.6,30,0.00,,---,0.00,VWS V13.01,2013-08-01 01:53:00,
2013-07-31 18:59:00,91.8,56.0,27.17,NE,36,5.4,5.8,30,0.00,,---,0.00,VWS V13.01,2013-08-01 01:59:00,
2013-07-31 19:04:00,91.6,55.8,27.17,North,11,5.8,9.2,30,0.00,,---,0.00,VWS V13.01,2013-08-01 02:04:00,
2013-07-31 19:09:00,91.4,55.6,27.20,NNE,14,4.0,6.3,30,0.00,,---,0.00,VWS V13.01,2013-08-01 02:09:00,
2013-07-31 19:14:00,91.4,55.6,27.20,NE,38,0.0,6.7,30,0.00,,---,0.00,VWS V13.01,2013-08-01 02:14:00,
2013-07-31 19:20:00,91.4,55.6,27.20,NE,46,4.0,4.9,30,0.00,,---,0.00,VWS V13.01,2013-08-01 02:20:00,
2013-07-31 19:25:00,91.4,55.6,27.20,North,11,0.0,5.8,30,0.00,,---,0.00,VWS V13.01,2013-08-01 02:25:00,
2013-07-31 19:30:00,91.2,55.5,27.20,NNE,15,4.5,5.8,30,0.00,,---,0.00,VWS V13.01,2013-08-01 02:30:00,
2013-07-31 19:36:00,91.0,55.3,27.17,NNE,21,4.0,5.8,30,0.00,,---,0.00,VWS V13.01,2013-08-01 02:36:00,
2013-07-31 19:41:00,90.9,55.2,27.17,NNE,15,0.0,5.8,30,0.00,,---,0.00,VWS V13.01,2013-08-01 02:41:00,
2013-07-31 19:46:00,90.7,55.0,27.17,NNE,30,0.0,3.1,30,0.00,,---,0.00,VWS V13.01,2013-08-01 02:46:00,
2013-07-31 19:51:00,90.5,54.9,27.17,NNE,29,0.0,4.5,30,0.00,,---,0.00,VWS V13.01,2013-08-01 02:51:00,
2013-07-31 19:56:00,90.3,54.7,27.17,NE,53,0.0,3.6,30,0.00,,---,0.00,VWS V13.01,2013-08-01 02:56:00,
2013-07-31 20:01:00,90.1,54.5,27.17,NNE,29,0.0,3.6,30,0.00,,---,0.00,VWS V13.01,2013-08-01 03:01:00,
2013-07-31 20:06:00,90.1,54.5,27.17,North,11,3.1,4.9,30,0.00,,---,0.00,VWS V13.01,2013-08-01 03:06:00,
2013-07-31 20:11:00,90.1,55.5,27.17,NE,48,0.0,3.6,31,0.00,,---,0.00,VWS V13.01,2013-08-01 03:11:00,
2013-07-31 20:16:00,90.0,55.3,27.17,NNE,29,0.0,2.7,31,0.00,,---,0.00,VWS V13.01,2013-08-01 03:16:00,
2013-07-31 20:22:00,90.0,55.3,27.20,NE,34,4.0,5.8,31,0.00,,---,0.00,VWS V13.01,2013-08-01 03:22:00,
2013-07-31 20:27:00,89.8,55.1,27.20,NE,52,0.0,3.6,31,0.00,,---,0.00,VWS V13.01,2013-08-01 03:27:00,
2013-07-31 20:32:00,89.8,55.1,27.20,NNE,33,3.1,5.4,31,0.00,,---,0.00,VWS V13.01,2013-08-01 03:32:00,
2013-07-31 20:37:00,89.6,54.1,27.20,ENE,59,6.3,6.3,30,0.00,,---,0.00,VWS V13.01,2013-08-01 03:37:00,
2013-07-31 20:42:00,89.8,54.2,27.20,NE,40,4.0,8.1,30,0.00,,---,0.00,VWS V13.01,2013-08-01 03:42:00,
2013-07-31 20:47:00,89.8,54.2,27.20,NNE,30,0.0,7.6,30,0.00,,---,0.00,VWS V13.01,2013-08-01 03:47:00,
2013-07-31 20:52:00,89.6,54.1,27.20,East,93,0.0,6.3,30,0.00,,---,0.00,VWS V13.01,2013-08-01 03:52:00,
2013-07-31 20:58:00,89.4,54.8,27.20,ESE,117,2.2,5.4,31,0.00,,---,0.00,VWS V13.01,2013-08-01 03:58:00,
2013-07-31 21:01:00,89.2,54.7,27.20,ESE,109,4.0,4.0,31,0.00,,---,0.00,VWS V13.01,2013-08-01 04:01:00,
2013-07-31 21:02:00,89.2,53.8,27.20,ESE,109,0.0,4.0,30,0.00,,---,0.00,VWS V13.01,2013-08-01 04:02:00,
2013-07-31 21:03:00,89.2,53.8,27.20,NNE,32,4.0,4.0,30,0.00,,---,0.00,VWS V13.01,2013-08-01 04:03:00,
2013-07-31 21:04:00,89.2,53.8,27.20,NNE,23,0.0,4.0,30,0.00,,---,0.00,VWS V13.01,2013-08-01 04:04:00,
2013-07-31 21:09:00,89.4,53.9,27.20,ENE,76,5.4,5.8,30,0.00,,---,0.00,VWS V13.01,2013-08-01 04:09:00,
2013-07-31 21:14:00,89.6,54.1,27.20,NE,43,3.1,7.6,30,0.00,,---,0.00,VWS V13.01,2013-08-01 04:14:00,
2013-07-31 21:19:00,89.6,54.1,27.20,East,86,3.1,4.0,30,0.00,,---,0.00,VWS V13.01,2013-08-01 04:19:00,
2013-07-31 21:24:00,89.4,53.9,27.20,NE,42,0.0,2.7,30,0.00,,---,0.00,VWS V13.01,2013-08-01 04:24:00,
2013-07-31 21:29:00,89.2,53.8,27.20,ENE,76,3.1,4.9,30,0.00,,---,0.00,VWS V13.01,2013-08-01 04:29:00,
2013-07-31 21:34:00,89.1,53.6,27.20,ENE,77,0.0,0.0,30,0.00,,---,0.00,VWS V13.01,2013-08-01 04:34:00,
2013-07-31 21:39:00,89.1,53.6,27.20,ENE,77,0.0,0.0,30,0.00,,---,0.00,VWS V13.01,2013-08-01 04:39:00,
2013-07-31 21:44:00,88.9,53.5,27.20,ENE,76,0.0,0.0,30,0.00,,---,0.00,VWS V13.01,2013-08-01 04:44:00,
2013-07-31 21:50:00,88.7,53.3,27.20,ENE,76,0.0,0.0,30,0.00,,---,0.00,VWS V13.01,2013-08-01 04:50:00,
2013-07-31 21:55:00,88.5,54.1,27.20,ENE,77,0.0,0.0,31,0.00,,---,0.00,VWS V13.01,2013-08-01 04:55:00,
2013-07-31 22:00:00,88.3,53.9,27.20,ENE,77,0.0,0.0,31,0.00,,---,0.00,VWS V13.01,2013-08-01 05:00:00,
2013-07-31 22:05:00,88.3,53.9,27.23,ENE,76,0.0,0.0,31,0.00,,---,0.00,VWS V13.01,2013-08-01 05:05:00,
2013-07-31 22:10:00,88.0,53.6,27.23,ENE,75,0.0,0.0,31,0.00,,---,0.00,VWS V13.01,2013-08-01 05:10:00,
2013-07-31 22:15:00,87.8,53.4,27.23,ENE,75,0.0,0.0,31,0.00,,---,0.00,VWS V13.01,2013-08-01 05:15:00,
2013-07-31 22:20:00,87.8,53.4,27.23,ENE,70,0.0,0.0,31,0.00,,---,0.00,VWS V13.01,2013-08-01 05:20:00,
2013-07-31 22:26:00,88.2,53.7,27.23,ENE,59,3.6,4.0,31,0.00,,---,0.00,VWS V13.01,2013-08-01 05:26:00,
2013-07-31 22:31:00,88.3,53.9,27.23,East,84,0.0,5.4,31,0.00,,---,0.00,VWS V13.01,2013-08-01 05:31:00,
2013-07-31 22:36:00,88.3,53.9,27.23,ENE,74,4.9,4.9,31,0.00,,---,0.00,VWS V13.01,2013-08-01 05:36:00,
2013-07-31 22:42:00,88.5,54.1,27.23,ENE,70,2.7,4.0,31,0.00,,---,0.00,VWS V13.01,2013-08-01 05:42:00,
2013-07-31 22:47:00,88.5,54.9,27.23,East,82,3.1,3.1,32,0.00,,---,0.00,VWS V13.01,2013-08-01 05:47:00,
2013-07-31 22:52:00,88.5,54.9,27.23,East,85,4.9,5.8,32,0.00,,---,0.00,VWS V13.01,2013-08-01 05:52:00,
2013-07-31 22:57:00,88.5,54.9,27.23,ESE,118,0.0,4.9,32,0.00,,---,0.00,VWS V13.01,2013-08-01 05:57:00,
2013-07-31 23:03:00,88.5,54.9,27.23,East,79,0.0,0.0,32,0.00,,---,0.00,VWS V13.01,2013-08-01 06:03:00,
2013-07-31 23:08:00,88.3,54.8,27.23,East,88,0.0,0.0,32,0.00,,---,0.00,VWS V13.01,2013-08-01 06:08:00,
2013-07-31 23:13:00,88.3,54.8,27.23,East,89,0.0,0.0,32,0.00,,---,0.00,VWS V13.01,2013-08-01 06:13:00,
2013-07-31 23:19:00,88.2,54.6,27.23,East,89,0.0,0.0,32,0.00,,---,0.00,VWS V13.01,2013-08-01 06:19:00,
2013-07-31 23:24:00,88.2,54.6,27.23,East,89,0.0,0.0,32,0.00,,---,0.00,VWS V13.01,2013-08-01 06:24:00,
2013-07-31 23:29:00,88.3,54.8,27.23,East,88,0.0,0.0,32,0.00,,---,0.00,VWS V13.01,2013-08-01 06:29:00,
2013-07-31 23:34:00,88.5,54.1,27.23,East,84,0.0,0.0,31,0.00,,---,0.00,VWS V13.01,2013-08-01 06:34:00,
2013-07-31 23:39:00,88.3,53.9,27.23,East,83,0.0,0.0,31,0.00,,---,0.00,VWS V13.01,2013-08-01 06:39:00,
2013-07-31 23:44:00,88.3,53.9,27.23,ENE,78,0.0,0.0,31,0.00,,---,0.00,VWS V13.01,2013-08-01 06:44:00,
2013-07-31 23:50:00,88.2,53.7,27.23,ENE,78,0.0,0.0,31,0.00,,---,0.00,VWS V13.01,2013-08-01 06:50:00,
2013-07-31 23:55:00,88.0,53.6,27.23,ENE,77,0.0,0.0,31,0.00,,---,0.00,VWS V13.01,2013-08-01 06:55:00,